Theta_e
317 313 322 326 319 315 318 320 321 322 322 324 325 332 334 339 339 340 340 332 326 326 324 323 322 323 323 323 323 323 323 322 322 321 321 320 320 320 320 320 320 319 319 319 319 319 319 319 320
315 316 323 324 317 317 317 319 322 321 323 325 325 329 338 341 339 340 339 338 327 326 325 324 323 324 324 324 323 323 323 322 322 321 321 320 320 320 320 319 319 319 319 319 319 319 319 319 320
315 319 322 319 316 317 318 320 322 322 323 324 326 333 340 340 339 339 337 337 326 326 325 324 323 325 325 325 324 324 324 323 322 321 321 320 320 320 320 319 319 320 320 320 320 319 319 319 320
327 328 326 320 319 318 319 320 320 321 323 325 325 335 341 338 338 337 338 333 326 327 325 323 323 325 326 325 325 324 324 323 323 322 321 321 321 321 320 320 320 320 320 320 320 320 320 320 320
328 326 323 318 318 318 319 320 320 319 321 323 325 335 340 337 337 336 336 329 326 327 325 322 323 324 326 326 325 325 324 324 323 322 322 321 321 320 319 319 320 320 320 321 321 321 320 321 320
329 325 321 320 322 322 320 322 321 321 322 323 324 332 339 337 337 336 332 328 327 328 326 324 323 324 326 325 324 324 324 324 323 322 322 321 320 320 319 319 319 319 320 321 321 321 321 321 320
327 322 321 321 322 323 323 324 323 321 321 323 325 330 337 339 337 336 335 327 326 327 326 325 325 325 325 325 324 323 323 322 322 321 321 320 320 319 319 318 318 318 319 320 321 321 321 321 321
321 324 328 325 327 328 328 328 326 326 325 325 325 336 337 339 340 338 334 326 326 326 327 326 326 326 325 325 325 324 323 322 321 321 320 320 320 319 319 319 318 318 318 319 320 320 321 321 321
321 318 327 330 330 329 328 327 328 327 328 328 325 335 339 339 340 340 336 327 326 326 327 327 326 326 325 325 325 324 324 323 322 322 321 321 321 320 319 319 318 317 317 317 318 319 320 320 321
318 317 320 325 327 327 327 326 326 327 327 327 327 330 337 337 338 340 337 332 326 326 326 327 326 326 325 325 325 325 326 326 325 324 323 323 322 321 319 319 318 317 316 316 316 317 318 320 320
315 318 320 321 322 323 323 324 325 325 326 327 327 327 326 331 337 339 336 332 328 327 327 327 327 327 326 326 326 326 327 327 326 325 324 323 322 321 321 320 318 317 316 316 316 316 317 318 319
312 314 317 320 320 321 321 322 323 324 325 325 326 328 327 326 327 329 336 332 334 335 333 328 328 327 327 327 327 327 327 327 327 326 325 325 325 324 322 321 319 318 317 316 315 315 315 316 317
311 313 314 315 316 319 321 322 323 322 323 324 325 326 327 329 327 328 335 337 338 338 338 336 330 328 328 328 327 327 326 327 327 329 332 332 332 332 331 330 328 326 323 320 319 320 321 324 324
311 311 312 313 314 315 316 318 320 320 321 322 323 325 326 327 329 329 332 336 336 338 339 338 335 331 332 330 332 333 333 332 332 332 330 332 330 333 335 336 337 337 337 334 330 328 329 332 334
311 310 310 312 313 314 316 317 317 319 319 320 321 323 325 327 327 328 328 332 337 338 338 339 338 338 338 338 339 340 341 337 331 328 328 329 330 329 333 338 340 341 340 340 336 333 333 335 335
310 310 309 312 312 314 316 316 317 318 318 318 319 321 323 324 327 328 327 328 333 335 336 338 339 340 340 339 338 339 339 335 333 331 328 329 327 329 330 339 337 343 342 342 338 336 334 337 336
308 309 310 311 311 311 312 313 314 315 317 318 319 319 321 322 323 325 327 328 328 333 335 336 338 340 339 337 337 339 336 335 335 334 331 328 326 327 330 337 335 345 344 343 341 337 336 337 337
310 309 309 311 312 312 311 311 312 313 314 314 314 315 318 320 321 323 324 326 328 328 334 335 336 335 335 336 336 335 335 335 335 333 329 329 327 328 332 337 340 343 345 343 341 338 337 337 336
311 311 310 311 312 312 311 311 312 312 313 312 313 313 314 315 318 323 325 326 326 327 327 332 335 334 335 335 334 334 335 334 335 332 331 332 333 333 334 340 340 342 344 344 342 340 338 338 337
309 308 308 310 311 311 310 311 312 312 311 312 313 313 314 315 316 318 320 322 324 327 327 328 333 333 333 333 331 332 331 331 331 332 333 332 328 329 334 333 334 342 344 344 343 341 340 339 338
310 310 311 312 312 310 310 310 310 311 311 312 313 313 313 314 315 316 319 321 322 327 328 329 332 333 333 332 332 332 334 335 333 330 331 327 325 326 332 335 339 343 345 345 344 342 341 339 339
311 312 312 312 311 310 310 311 310 310 311 311 312 312 313 313 314 315 315 317 321 328 328 328 330 335 334 333 333 332 332 329 328 327 327 326 323 333 337 339 342 343 345 344 344 343 341 340 339
312 312 310 311 311 310 311 309 310 310 311 311 311 312 312 313 313 313 314 315 320 323 324 323 326 331 334 333 333 331 329 328 327 326 324 324 324 335 342 342 343 344 344 344 342 342 341 339 339
311 310 309 309 309 311 309 310 310 310 310 311 312 312 313 314 314 314 315 315 317 320 324 324 326 332 333 331 329 328 328 328 326 324 324 326 326 327 343 344 344 344 345 342 342 342 341 340 340
308 309 308 309 310 311 310 309 309 310 311 312 313 315 315 315 316 316 315 315 315 318 322 326 328 330 329 329 328 328 327 325 325 325 325 325 331 340 345 344 345 345 342 341 342 341 341 340 337
309 308 309 314 311 310 311 311 310 310 312 315 314 314 313 313 315 317 317 316 316 317 321 326 327 329 329 329 326 324 324 324 324 327 325 325 335 342 345 346 346 340 341 341 341 341 340 339 336
308 310 308 311 310 312 311 311 310 315 315 315 314 313 313 313 314 318 319 316 318 319 320 324 325 326 325 324 324 324 325 325 325 328 326 327 337 345 346 346 344 340 340 341 341 339 339 337 337
310 310 310 309 313 314 313 312 312 316 315 314 312 312 313 313 314 319 320 319 323 323 322 323 325 324 324 325 324 324 325 324 326 329 327 328 336 346 346 346 344 338 341 341 341 340 339 336 335
309 310 311 310 311 310 316 314 312 314 314 313 311 312 313 313 316 319 319 318 328 328 325 325 326 327 327 328 326 324 323 324 329 331 330 329 333 348 346 344 340 341 341 340 339 338 335 333 331
309 311 311 309 311 315 315 313 312 313 312 312 312 313 314 316 318 319 317 316 330 335 335 334 331 328 329 329 330 328 326 328 335 335 331 331 344 347 341 339 342 342 340 340 338 336 333 331 330
Wind_Speed
7 3 2 2 3 4 4 8 4 14 8 5 24 10 8 15 8 5 17 39 38 35 36 34 32 31 30 29 28 27 25 23 22 21 19 17 15 14 13 11 10 9 8 8 7 7 7 7 7
4 4 1 2 4 0 6 6 16 8 18 37 41 18 5 3 10 14 36 35 35 37 37 36 35 32 30 29 27 25 24 22 21 19 18 15 14 12 11 9 9 8 7 6 5 5 6 6 6
2 5 0 3 4 6 6 4 4 10 32 30 11 16 12 12 15 34 41 39 40 38 38 38 37 34 31 29 27 25 23 22 20 18 16 15 13 12 10 9 8 7 6 5 4 3 3 3 5
1 2 1 2 10 7 6 13 15 16 27 28 29 3 6 20 29 38 38 39 42 40 40 40 38 35 30 28 25 23 21 20 19 17 15 14 12 11 10 10 8 7 6 5 4 3 2 1 1
3 2 0 4 9 7 8 14 21 10 17 27 32 4 19 28 27 35 36 42 42 41 41 40 38 34 29 27 25 23 21 19 18 17 16 14 13 12 11 11 10 10 8 7 7 6 5 3 3
2 3 1 6 10 9 6 19 18 8 22 25 22 13 12 28 31 36 37 41 43 42 41 39 36 33 29 27 25 23 21 19 18 18 16 15 15 14 13 12 12 12 11 10 10 10 9 8 7
4 3 6 5 9 12 8 14 12 8 12 11 19 4 3 28 32 35 38 42 44 41 41 38 36 33 29 27 25 23 21 20 19 19 17 16 15 15 15 15 15 15 15 13 14 13 12 12 11
5 3 4 6 10 13 10 11 16 19 15 13 18 6 4 29 30 43 43 46 44 42 40 38 36 34 31 28 26 23 21 20 20 19 18 18 18 18 18 18 19 19 18 18 17 17 16 15 14
7 2 8 7 11 9 21 7 29 26 21 26 13 5 5 20 29 38 41 42 42 41 39 38 36 35 33 30 27 25 23 21 21 21 21 21 22 22 21 21 22 22 22 21 21 20 20 19 17
7 5 8 6 10 9 18 23 26 23 30 24 21 11 6 15 33 34 34 39 41 41 40 39 37 35 33 32 29 27 24 23 23 22 23 23 22 23 24 24 24 24 24 25 24 24 24 23 21
5 11 6 10 12 16 21 28 27 19 18 25 12 19 15 9 14 34 33 36 40 41 38 38 37 35 34 32 31 28 26 23 24 24 24 23 24 26 26 27 27 27 26 29 28 28 28 27 25
8 14 11 15 22 22 19 33 25 25 30 37 29 24 15 11 11 12 30 38 38 38 38 39 39 37 35 33 31 29 27 25 25 24 24 25 26 26 29 29 28 28 27 31 29 30 29 28 27
8 10 19 22 25 24 26 26 26 36 37 35 38 26 22 15 15 15 25 39 42 37 39 41 42 39 35 33 32 30 28 26 23 22 22 24 26 26 27 25 25 26 24 28 26 26 25 25 25
7 9 15 15 20 20 17 22 25 42 36 31 36 33 26 25 21 14 3 11 32 38 42 41 41 40 33 31 29 24 23 22 23 22 23 22 24 24 22 21 21 22 19 23 21 20 19 18 18
13 7 8 6 5 5 15 18 21 28 29 29 31 37 33 26 28 31 19 10 16 23 33 41 37 34 32 30 22 18 19 19 23 22 23 23 24 25 23 22 23 21 19 20 20 18 18 18 16
5 1 1 3 6 5 6 23 19 27 29 32 30 32 38 34 27 31 32 23 21 21 21 18 31 35 30 29 30 25 25 22 24 25 26 25 24 27 27 25 27 24 21 21 21 19 20 19 18
3 4 4 5 6 6 7 17 6 18 19 26 33 34 33 37 32 31 33 30 23 27 28 38 30 34 30 33 29 28 26 25 26 28 31 28 26 28 30 28 28 28 25 25 23 21 22 20 18
6 6 4 3 3 2 9 15 6 16 18 17 20 25 30 38 44 38 38 37 34 26 30 35 38 36 27 24 30 30 28 27 29 31 32 29 28 30 30 30 30 31 28 28 24 24 23 23 20
7 7 6 4 5 4 8 16 13 8 13 15 23 26 30 32 35 43 30 33 38 39 31 40 49 48 41 46 41 38 33 34 35 34 30 29 30 31 29 30 32 31 29 28 23 23 26 24 20
7 5 7 4 9 11 9 20 18 11 7 18 23 28 30 33 36 35 38 43 38 43 40 34 45 44 47 46 41 41 36 36 35 34 31 28 30 31 30 32 32 29 28 27 24 24 26 24 22
5 4 6 7 11 5 6 19 12 12 12 19 21 25 29 31 35 38 38 38 45 41 39 29 33 42 47 46 42 41 38 37 35 35 32 31 31 30 28 26 25 27 26 25 24 26 24 24 23
2 6 9 11 8 3 4 13 14 14 11 8 16 24 30 36 38 39 43 39 37 41 36 39 28 41 46 44 42 41 39 37 31 31 33 33 32 28 28 26 24 24 24 24 24 24 24 21 23
4 3 4 5 8 2 5 6 9 14 19 18 15 25 32 36 40 44 44 42 37 37 47 41 38 34 48 43 39 34 33 31 27 26 30 32 27 28 28 28 24 23 24 22 20 20 21 18 21
2 4 6 5 1 5 6 7 21 9 13 13 14 27 26 27 30 36 42 38 38 36 40 42 39 31 43 38 35 35 35 30 30 27 28 28 25 27 29 27 22 22 21 19 18 17 18 18 19
5 4 4 4 2 5 1 6 13 12 15 18 8 17 26 30 30 30 32 36 43 38 39 37 35 33 38 37 37 35 36 36 32 29 24 26 24 27 31 26 22 21 19 18 19 18 18 17 17
4 6 4 4 4 11 17 8 8 8 13 5 8 14 25 35 36 36 35 34 39 39 38 41 38 38 40 38 39 39 36 36 36 30 25 25 25 27 28 24 21 18 23 19 18 16 18 15 15
2 3 6 3 8 5 8 13 11 3 6 11 12 14 23 33 38 39 34 35 41 39 36 41 42 42 39 34 34 34 34 37 37 32 27 25 25 26 26 22 20 19 24 21 19 16 15 14 15
4 3 2 1 3 5 4 8 8 7 10 9 11 12 23 32 36 35 30 29 23 27 34 40 41 41 36 31 30 33 33 30 32 33 29 26 26 27 25 23 18 24 23 20 19 17 15 15 16
4 2 2 1 2 3 5 6 6 10 9 8 13 22 27 31 27 31 31 26 21 13 22 34 35 33 30 25 27 33 32 27 29 32 28 27 24 25 22 22 22 26 22 18 18 15 14 14 13
10 5 4 3 5 3 5 9 9 6 6 9 14 25 28 24 19 23 27 33 16 9 14 15 19 23 22 26 28 27 25 27 29 29 27 24 25 24 21 23 26 23 21 19 17 15 14 14 13
Wind_Direction
330 253 217 117 63 64 248 255 276 284 336 280 309 270 161 175 155 210 158 164 159 155 162 163 158 154 151 149 151 150 149 150 148 146 146 146 144 140 138 136 135 132 129 122 119 114 110 104 97
342 178 239 106 102 100 264 245 256 288 276 304 302 265 135 162 168 146 153 159 161 160 163 167 162 159 156 155 157 157 156 158 159 159 159 159 157 154 154 156 153 154 144 134 130 126 117 109 106
63 172 115 117 169 193 234 241 245 297 306 296 286 230 138 160 162 151 157 161 165 165 168 169 165 165 160 161 162 165 167 167 170 169 169 169 171 169 175 177 176 176 168 156 156 143 120 109 112
216 113 195 119 247 252 250 299 307 309 307 320 338 143 120 151 148 155 159 166 167 166 172 171 168 168 162 165 168 172 177 179 178 177 179 181 184 187 190 196 197 205 195 191 209 210 189 197 110
167 124 36 244 255 265 283 284 295 299 298 310 334 277 141 156 155 161 163 170 170 169 173 173 171 172 168 172 175 178 183 190 191 191 190 194 200 205 208 211 213 220 220 220 228 237 236 250 257
209 180 144 236 260 274 282 289 293 277 294 309 335 326 147 171 164 164 166 173 176 172 174 174 173 177 176 178 182 186 192 197 204 208 208 208 212 216 222 226 230 231 233 232 238 244 247 249 252
176 136 215 233 266 285 275 290 287 278 298 304 337 16 245 183 180 171 172 176 178 177 176 176 177 180 183 183 186 191 199 206 211 218 223 227 228 228 232 236 240 240 242 242 244 247 251 254 256
213 127 235 224 250 275 276 292 298 297 303 317 334 330 306 181 180 173 175 177 181 181 180 181 183 184 187 189 192 196 204 211 218 224 230 235 239 240 241 243 245 246 246 247 247 249 250 251 254
206 170 226 224 240 260 295 309 301 323 340 340 353 236 188 197 183 179 176 180 183 185 187 189 190 191 193 194 197 200 206 217 223 228 233 238 242 246 247 250 251 250 251 251 250 251 252 253 252
191 189 222 230 237 288 298 298 301 320 318 313 345 6 18 188 183 181 178 183 189 191 193 197 198 198 199 200 201 205 208 217 226 232 237 242 247 251 254 256 255 254 254 256 253 253 253 253 254
225 238 246 260 270 276 282 286 297 309 299 297 320 322 324 55 181 183 189 194 194 200 199 203 205 207 206 208 207 210 213 220 230 237 243 250 252 254 258 259 258 257 257 258 256 256 256 257 258
255 262 260 261 263 263 274 284 285 285 275 287 294 303 311 270 255 276 215 196 198 200 203 209 212 210 211 215 215 217 222 225 235 244 251 255 257 258 261 263 264 265 262 262 261 261 261 262 263
257 274 270 268 265 259 262 266 275 283 281 288 293 290 288 297 274 298 232 217 205 213 207 207 209 210 212 218 220 224 228 233 239 240 248 254 260 263 263 263 267 268 265 264 262 260 260 263 267
310 318 295 279 277 285 268 265 268 269 278 283 288 293 290 284 283 288 285 249 224 223 215 215 213 211 210 218 217 222 228 235 241 244 251 257 265 265 260 259 266 270 270 269 267 258 259 264 274
305 304 313 288 277 265 288 279 256 269 282 289 278 286 289 280 278 275 273 228 190 200 214 226 222 211 206 215 217 229 241 242 247 251 258 258 261 267 270 271 274 276 278 274 266 257 254 254 263
323 263 352 320 351 283 195 259 269 278 282 284 287 286 278 276 283 276 275 270 237 209 214 197 224 216 213 231 244 246 242 250 253 260 257 254 257 268 274 276 283 277 275 272 267 261 256 256 256
318 254 267 300 242 247 216 274 326 322 293 274 275 275 281 286 272 271 278 273 260 233 231 212 208 217 236 239 240 237 238 249 259 264 259 253 259 266 271 276 282 279 270 267 266 259 253 254 258
260 267 249 227 302 3 294 293 279 299 307 307 322 322 300 276 274 275 268 271 271 262 231 203 197 216 214 227 229 232 237 244 252 257 256 255 259 265 268 270 272 275 265 262 258 252 250 255 260
264 280 290 278 238 301 282 283 287 288 300 304 304 301 302 305 296 277 267 261 263 263 255 240 231 232 234 218 224 226 224 232 238 242 245 248 252 259 267 266 265 267 259 259 256 252 247 252 254
321 319 321 293 316 312 287 283 288 287 266 291 289 292 291 298 304 291 278 257 258 258 256 245 235 232 224 219 222 226 234 238 244 250 245 252 263 267 268 267 266 265 257 249 244 239 238 240 246
5 21 342 318 326 331 303 289 299 298 292 294 290 293 297 302 300 302 307 276 255 253 247 254 237 231 215 217 221 222 224 232 237 245 252 260 266 268 261 262 261 259 253 247 249 241 233 236 240
358 335 343 329 335 284 14 288 298 303 295 292 302 311 308 306 307 303 300 301 276 244 247 252 245 228 223 221 217 222 221 230 242 258 269 270 263 263 258 258 254 254 248 243 249 236 235 237 239
220 359 333 287 280 259 232 271 278 308 295 292 293 294 295 293 296 295 297 294 289 258 251 255 249 249 233 224 226 234 235 241 252 263 266 264 257 253 257 251 245 243 241 248 229 228 231 236 242
57 10 352 318 227 244 216 216 279 268 274 280 295 291 305 318 312 300 295 297 288 276 254 254 239 245 225 225 232 240 247 251 256 257 259 256 255 246 245 241 241 242 247 219 221 229 228 237 242
77 55 340 333 334 239 8 302 271 273 275 292 324 338 327 324 326 307 296 294 290 291 268 240 228 220 217 224 234 245 254 259 254 253 253 254 244 237 234 237 238 245 225 212 221 224 219 231 234
234 171 165 270 271 299 299 251 260 297 312 336 346 337 333 330 324 314 299 288 282 277 265 231 225 221 223 225 238 247 250 254 254 247 249 249 239 239 236 237 238 232 199 214 217 211 216 224 224
264 161 209 214 249 256 264 267 279 318 345 326 316 322 327 324 322 315 310 286 272 267 259 233 230 224 228 238 240 242 246 248 248 243 246 245 236 237 235 239 231 214 201 214 208 219 214 223 225
162 210 307 313 265 256 261 280 256 311 299 285 309 298 313 313 314 311 319 327 284 251 234 235 227 234 243 234 241 244 245 250 248 238 238 231 233 233 229 229 223 196 203 210 205 212 218 227 232
323 286 84 172 176 242 310 258 217 236 248 296 304 297 295 304 311 310 313 332 307 207 203 214 221 225 222 227 238 249 249 248 239 230 229 234 229 223 220 225 201 197 201 203 203 207 221 228 223
244 207 155 130 285 263 267 271 252 238 285 266 300 294 307 311 311 309 325 329 314 245 202 211 218 227 227 228 235 239 236 232 221 223 231 222 215 208 206 188 188 192 201 200 205 217 230 212 209